Weather History for Rolla, MO

Change the Weather History Date:

Wednesday, January 2, 2013

  Actual Average Record
Temperature  
Mean Temperature 17 °F 31 °F  
Max Temperature 31 °F 40 °F 70 °F (2004)
Min Temperature 3 °F 22 °F -6 °F (1979)
Degree Days  
Heating Degree Days 48 34  
Month to date heating degree days 92 68  
Since 1 July heating degree days 1845 1985  
Cooling Degree Days 0 0  
Month to date cooling degree days 0 0  
Year to date cooling degree days 0 0  
Moisture  
Dew Point 11 °F    
Average Humidity 73    
Maximum Humidity 92    
Minimum Humidity 53    
Precipitation  
Precipitation 0.00 in 0.08 in 1.41 in (2005)
Month to date precipitation 0.00 0.16  
Year to date precipitation 0.00 0.16  
Sea Level Pressure  
Sea Level Pressure 30.23 in    
Wind  
Wind Speed 6 mph (SW)    
Max Wind Speed 10 mph    
Max Gust Speed 12 mph    
Visibility 8 miles    
Events      
T = Trace of Precipitation, MM = Missing Value Source: NWS Daily Summary

Daily Weather History Graph

Daily Weather History Graph

Search for Another Location

Airport:

Trip Planner

Search our weather history database for the weather conditions in past years. The results will help you decide how hot, cold, wet, or windy it might be!

Date:

Astronomy

Jan. 02, 2013 Rise Set
Actual Time 7:23 AM CST 4:59 PM CST
Civil Twilight 6:54 AM CST 5:28 PM CST
Nautical Twilight 6:21 AM CST 6:01 PM CST
Astronomical Twilight 5:49 AM CST 6:33 PM CST
Moon 10:26 PM CST (1/2) 10:10 AM CST (1/2)
Length of Visible Light 10h 34m
Length of Day
9h 35m
Waning Gibbous, 75% of the Moon is Illuminated
Jan 2
Waning Gibbous
Jan 4
Last Quarter
Jan 11
New
Jan 18
First Quarter
Jan 26
Full

Hourly Weather History & Observations

Time (CST) Temp. Windchill Dew Point Humidity Pressure Visibility Wind Dir Wind Speed Gust Speed Precip Events Conditions
12:53 AM 10.9 °F - 9.0 °F 92% 30.25 in 5.0 mi Calm Calm - N/A   Clear
1:53 AM 7.0 °F -1.7 °F 3.9 °F 87% 30.27 in 5.0 mi SSW 4.6 mph - N/A   Clear
2:53 AM 10.0 °F - 7.0 °F 87% 30.27 in 4.0 mi Calm Calm - N/A   Clear
3:53 AM 10.0 °F 1.8 °F 8.1 °F 92% 30.26 in 6.0 mi WSW 4.6 mph - N/A   Clear
4:53 AM 9.0 °F 0.6 °F 6.1 °F 88% 30.27 in 6.0 mi SW 4.6 mph - N/A   Clear
5:53 AM 9.0 °F 0.6 °F 6.1 °F 88% 30.26 in 7.0 mi SSW 4.6 mph - N/A   Clear
6:53 AM 9.0 °F -4.2 °F 6.1 °F 88% 30.27 in 7.0 mi SW 9.2 mph - N/A   Clear
7:53 AM 10.0 °F -0.9 °F 8.1 °F 92% 30.27 in 5.0 mi SSW 6.9 mph - N/A   Clear
8:53 AM 12.2 °F 1.7 °F 10.4 °F 92% 30.20 in 6.0 mi SSW 6.9 mph - N/A   Clear
9:53 AM 16.0 °F 6.3 °F 12.9 °F 88% 30.26 in 9.0 mi SSW 6.9 mph - N/A   Clear
10:53 AM 19.9 °F 12.1 °F 15.1 °F 81% 30.25 in 10.0 mi SSW 5.8 mph - N/A   Clear
11:53 AM 23.0 °F 15.8 °F 15.1 °F 72% 30.23 in 10.0 mi SSW 5.8 mph - N/A   Clear
12:53 PM 27.0 °F 19.5 °F 15.1 °F 61% 30.21 in 10.0 mi SW 6.9 mph - N/A   Clear
1:53 PM 30.0 °F 24.1 °F 15.1 °F 54% 30.20 in 10.0 mi WSW 5.8 mph - N/A   Clear
2:53 PM 30.9 °F 25.2 °F 16.0 °F 54% 30.18 in 10.0 mi SSW 5.8 mph - N/A   Clear
3:53 PM 30.9 °F 24.3 °F 16.0 °F 54% 30.19 in 10.0 mi SSW 6.9 mph - N/A   Clear
4:53 PM 28.4 °F 23.3 °F 15.8 °F 59% 30.14 in 10.0 mi South 4.6 mph - N/A   Clear
5:53 PM 19.9 °F 12.1 °F 10.9 °F 68% 30.21 in 10.0 mi South 5.8 mph - N/A   Clear
6:53 PM 23.0 °F 15.8 °F 12.9 °F 65% 30.22 in 10.0 mi South 5.8 mph - N/A   Clear
7:53 PM 17.1 °F 7.6 °F 10.0 °F 74% 30.22 in 10.0 mi SSW 6.9 mph - N/A   Clear
8:53 PM 21.9 °F 11.7 °F 12.9 °F 68% 30.24 in 10.0 mi SW 9.2 mph - N/A   Clear
9:53 PM 21.0 °F 9.9 °F 12.9 °F 71% 30.25 in 10.0 mi SW 10.4 mph - N/A   Clear
10:53 PM 19.9 °F 10.1 °F 10.9 °F 68% 30.25 in 10.0 mi SW 8.1 mph - N/A   Clear
11:36 PM 19.4 °F 9.5 °F 10.4 °F 68% 30.20 in 10.0 mi SW 8.1 mph - N/A   Mostly Cloudy
11:46 PM 17.6 °F 8.2 °F 10.4 °F 73% 30.20 in 10.0 mi SW 6.9 mph - N/A   Scattered Clouds
11:53 PM 16.0 °F 6.3 °F 10.0 °F 77% 30.25 in 10.0 mi SW 6.9 mph - N/A   Mostly Cloudy